Location: site
(53.0000°N, 23.0500°E)
Time: 19:33:26
(UTC+01:00)

SAOCOM 1-A - Pass Details

Date: 08 December 2020
Orbit: 621 x 623 km, 97.9° (Epoch: 24 January)

Event Time Altitude Azimuth Distance (km) Brightness Sun altitude
Rises 04:05:48 0° 147° (SSE) 2,897 ? -29.0°
Reaches altitude 10° 04:08:02 10° 142° (SE) 1,994 ? -28.7°
Maximum altitude 04:12:12 48° 69° (ENE) 824 ? -28.0°
Enters shadow 04:12:32 47° 53° (NE) 838 ? -28.0°
